發表時間 文章標題 人氣 留言
2017-10-17 TAMIYA 1/12 YAMAHA-M1 (0) (0)
2017-10-16 HASAGAWA 1/48 EA-18G (21) (0)
2017-10-16 HASAGAWA 1/48 FA-18D (21) (0)
2017-06-18 TAMIYA F-16CJ (183) (1)
2017-06-03 HASAGAWA 1/48 FA-18C (86) (0)
2017-03-13 TAMIYA 1/48 F-16CJ BLOCK 50 (388) (0)
2017-03-13 R.O.C.AF F-16B 6813改6805 (97) (1)
2017-01-08 1/72 R.O.C.AF F-CK-1A (290) (1)
2016-10-22 RODEN 1/144 R.O.C.Air Force C-119G 3189 (238) (1)
2016-10-19 刀無極+邪天御武 (24) (1)
2016-10-01 KITTY HAWK 1/48 SEPECAT JAGUAR T.2/T.4 美洲虎雙座教練機 (277) (1)
2016-08-29 BRONCO威駿 1/48 CURTISS P-40C(HAWK81-A2)寇帝斯 P-40C飛虎隊 (236) (0)
2016-08-29 KINETIC 1/48 ROCAF F-16A/B 70TH FLYING TIGERS (231) (0)
2016-07-04 1/48 AIRCRAFT WEAPONS:E U.S.AIR-TO-AIR MISSILES & TARGET PODS (97) (1)
2016-05-22 KINETIC 1/48 ROCAF Mirage2000-5EI 機號2016 (329) (3)
2016-04-11 造型村 A-1H SKYRAIDER U.S.NAVY (166) (1)
2016-02-22 閃電霹靂車-凰呀--塗裝整修 (133) (0)
2016-02-01 Hasegawa 1/48 愛知九九艦上爆擊機一一型 (112) (2)
2015-12-20 MIRAGE F.1B-修改 (154) (1)
2015-11-23 HASEGAWA 1/48中島B6N2艦上攻擊機 天山一二型 (275) (0)
2015-10-25 Hasegawa 1/48 P-51D MUSTANG 製作過程 (1437) (1)
2015-10-08 AV-8B進廠整修 (295) (0)
2015-09-14 舊作~~小時候的第一次 (202) (0)
2015-08-22 BANDAI海賊王-千陽號 (171) (0)
2015-08-11 HASEGAWA 1/48 F-4F PHANTOM II (294) (0)
2015-08-08 KINETIC 1/48 ROCAF Mirage2000-5EI 機號2048 (443) (2)
2015-08-07 個人專屬工作室 (159) (3)
2014-07-11 AFV 1/48中華民國海軍500MD/ASW反潛直昇機(機號6901,6912) (358) (1)
2014-06-12 R.O.C.N 500MD (180) (0)
2014-05-11 KINETIC 1/48 ROCAF Mirage2000-5EI (762) (7)
2014-04-24 1/72 R.O.C.A. MIRAGE 2000-5EI (701) (3)
2014-04-18 KITTY HAWK 1/48 SH-2F (491) (0)
2014-04-15 MRC 1/48 H-34 (171) (0)
2014-04-11 TRUMPETER 1/48 HU-16A (264) (2)
2014-04-11 hasegawa 休斯300蛋機 (194) (0)
2013-12-03 搬家完成了,就定位了........ (108) (0)
2013-11-15 搬家了...... (36) (2)
2012-12-14 ACADEMY 1/48 R.O.C.N 500MD/ASW (281) (5)
2012-05-15 中華民國空軍499聯隊44中隊 F-86F 6156 (554) (9)
2012-04-21 KINETIC 1/48 ROCAF 455聯隊F-16B 6813--已售出 (638) (5)
2012-03-31 classic airframes 1/48 F-5A 自由鬥士 (243) (3)
2011-12-19 2011 FUN模集 12月24日週六 9:00-17:00 精美套件大放送! (38) (0)
2011-10-26 Kinetic 1/48 中華民國空軍 Mirage2000-5DI (1127) (16)
2011-10-24 ITALERI 1/48 S-3A/B (122) (1)
2011-10-15 模力堂 1/48 AT-3自強號戰機 (1391) (3)
2011-10-10 1/48 TA-4J SKY HAWK 雙座教練機 (150) (4)
2011-04-23 AFV CLUB 1/48 F-5F (363) (1)
2011-04-15 模力誌第五期 (157) (0)
2011-04-09 KINETIC 1/48 M2000-5DI (213) (2)
2011-04-04 KINETIC 1/48 S-2F (364) (5)
1 23
找更多相關文章與討論